This is the latest recevied weather packets stored in our database for station/object N4DWK. If no packets are shown the sender has not sent any weather packets the latest 10 day(s).
| Time | Temp. | Humidity | Pressure | Rain* | Wind** | Luminosity | Snow |
|---|---|---|---|---|---|---|---|
| 1777735505 | 12.78° C | 58% | 1015 hPa | 0 mm | - | 123 W/m² | - |
| 1777735205 | 12.78° C | 58% | 1014.9 hPa | 0 mm | - | 120 W/m² | - |
| 1777734906 | 12.78° C | 58% | 1014.8 hPa | 0 mm | - | 109 W/m² | - |
| 1777734605 | 12.78° C | 59% | 1014.7 hPa | 0 mm | - | 113 W/m² | - |
| 1777734305 | 12.78° C | 59% | 1014.7 hPa | 0 mm | - | 113 W/m² | - |
| 1777734005 | 12.78° C | 58% | 1014.8 hPa | 0 mm | - | 105 W/m² | - |
| 1777733705 | 12.22° C | 59% | 1014.8 hPa | 0 mm | - | 102 W/m² | - |
| 1777733405 | 12.22° C | 59% | 1015 hPa | 0 mm | - | 104 W/m² | - |
| 1777732806 | 12.22° C | 58% | 1015.1 hPa | 0 mm | - | 97 W/m² | - |
| 1777732505 | 12.22° C | 57% | 1015.1 hPa | 0 mm | - | 109 W/m² | - |
| 1777732206 | 12.78° C | 57% | 1015.1 hPa | 0 mm | - | 104 W/m² | - |
| 1777731906 | 12.78° C | 58% | 1015 hPa | 0 mm | - | 95 W/m² | - |
| 1777731607 | 12.78° C | 59% | 1014.8 hPa | 0 mm | - | 116 W/m² | - |
| 1777731306 | 12.22° C | 59% | 1014.9 hPa | 0 mm | - | 127 W/m² | - |
| 1777731005 | 12.22° C | 59% | 1014.9 hPa | 0 mm | - | 148 W/m² | - |
| 1777730705 | 12.22° C | 59% | 1014.9 hPa | 0 mm | - | 141 W/m² | - |
| 1777730405 | 12.22° C | 60% | 1014.7 hPa | 0 mm | - | 139 W/m² | - |
| 1777730106 | 12.22° C | 61% | 1014.5 hPa | 0 mm | - | 116 W/m² | - |
| 1777729205 | 12.22° C | 65% | 1014.4 hPa | 0 mm | - | 91 W/m² | - |
| 1777728905 | 12.22° C | 67% | 1014.4 hPa | 0 mm | - | 100 W/m² | - |
| 1777728605 | 12.22° C | 67% | 1014.4 hPa | 0 mm | - | 125 W/m² | - |
| 1777728305 | 11.67° C | 67% | 1014.3 hPa | 0 mm | - | 120 W/m² | - |
| 1777728005 | 11.67° C | 68% | 1014.3 hPa | 0 mm | - | 120 W/m² | - |
| 1777727706 | 11.67° C | 70% | 1014.3 hPa | 0 mm | - | 98 W/m² | - |
| 1777727405 | 11.67° C | 70% | 1014.3 hPa | 0 mm | - | 81 W/m² | - |
* Rain latest hour (hover to see other rain measurements)
** Current wind speed in m/s (hover to see current wind gust speed)